Showing default

BADR 7, 41029

Orbit data source: Space-Track

BADR 7, 41029 is a payload satellite owned by Arabsat (SA) in GEO that was launched on Tue, 10 Nov 2015 UTC via an ARIANE 5ECA launch vehicle from the French Guiana (FRGUI). Payload-class satellites include a variety of spacecraft equipped with specific instruments for various scientific and technological missions. These include communications satellites like Starlink; space stations such as the ISS; scientific satellites like the Hubble; Earth observation satellites from companies like Planet Labs, Umbra, and HawkEye 360; GPS; miniature CubeSats for education and research; and military/defense satellites.

Not visible in the next 10 days
Identifier
41029, 2015-065B
Orbit
GEO
Last TLE update
12 hours ago
Origin
Manufacturer
ADS/Bremen
Mission
Operational Commercial Communications
Bus & Motor
EUROSTAR 3000LS, R-4D?
Mass
5,799 kg wet, ~3,000 kg dry
Launch date (UTC)
2015-11-10 (9 years ago)
Launch vehicle
ARIANE 5ECA
Launch site
French Guiana (FRGUI)
Object type
Payload
Rocket body
Debris
Shape & HBR
Box + 2 Pan, 30.8 m
Radar Cross Section
30.523 m², Large (>1 m²)

Expand to show TLE details & history

TLE from 12 hours ago
0 BADR 7
1 41029U 15065B   25128.86448814  .00000150  00000-0  00000-0 0  9990
2 41029   0.0356 241.1233 0002382 352.5482 330.4810  1.00269640 34714
Epoch: 2025-05-08T20:44Z
Definitive object data (Epoch: 2025-05-08T20:44:51.775Z)
Latitude
-0.0386°
Longitude
25.99142°
Altitude
35,777.904 km
Speed
3.075 km/s
True Right ascension
13h 36m 32s
True Declination
0° 02' 19"
Sunlit
Object was in daylight at TLE epoch
Visualization TLE readout
Latitude
0.0376°
Longitude
-152.63312°
Altitude
35,795.519 km
Speed
3.074 km/s
Apparent Right ascension
02h 00m 37s
Apparent Declination
-5° 04' 23"
Sunlit
Object is in daylight
Visualization observer readout
Local Sidereal Time
16:57:31
Azimuth
60.677° ENE
Elevation
-37.174°
Doppler factor
1
Orbital elements
Apogee altitude
35,798.311 km
Perigee altitude
35,778.223 km
Semi-major axis
42,166.404 km
Eccentricity
0.0002382
Inclination
0.0356°
RAAN
241.1233°
Arg. of periapsis
352.5482°
True anomaly
330.46755°
Mean anomaly
330.481°
Eccentric anomaly
330.47427°
Mean motion
0.25066 °/min
BSTAR
Unknown
Orbital period
1436.18 mins
Loading historical data...
41029 neighbors
Loading maneuver chart data...
Loading SW <> Apogee altitude chart data...
Loading historical data...
Loading historical data...
Loading historical data...
Loading historical data...
Loading historical data...
Loading historical data...
Loading historical data...
Other satellites on launch #65 in the year 2015 (2015-11-10 UTC)

BADR 7 Visibility forecast

Observer location: undefined°, undefined°

BADR 7 is not visible in the next 10 days
Span
Click to sort rows by Start time (UTC) header in descending order
Start Az.
Max El. time (UTC)
Max El. Az.
Max El.
End time (UTC)
End Az.
|